Content
SEND FEEDBACK

Daily
Averages
Monthly
Summary
United States of America

RED BLUFF, CALIFORNIA


Home > North America > United States > California
Elevation: 344 feet     Latitude: 40 09N     Longitude: 122 15W

WEATHER
 
SELECT A DAY
Number of Records: 185,455;   Date Range: 1/1/95 - 10/18/14
 
SHARE

PRINT THIS DATA

[ ← Previous Day ]
WEATHER ALMANAC - FEBRUARY 6, 2013
[ Next Day → ]
[ °C ]   °F
Weather ElementAverageHighLow
Temperature44.5 °F59 °F (1:54 pm)33.1 °F (3:54 am)
Dewpoint34.8 °F39 °F (7:54 pm)30 °F (3:54 am)
Humidity72.6 %93 % (12:41 am)33 % (3:54 pm)
Barometer30.13 in30.19 in (7:54 am)30.07 in (3:54 pm)
Wind Speed5.1 mph10.4 mph (9:54 am)
Weather ElementAverage
Visibility7.7 mi
Wind DirectionSSW (215 °)

Weather ElementTotal
Precipitation---
Heating Degree Days19 (Base 65)
Averaged from 30 records on February 6, 2013
WEATHER CONDITIONS BREAKOUT
WIND DIRECTION BREAKOUT
WEATHER BY HOUR - FEBRUARY 6, 2013
[ °C ]   °F
Local TimeTemperatureDewpointHumidityBarometerVisibilityWind DirectionWind SpeedGust SpeedPrecipitationEventsConditions
12:41 AM39.2 °F37.4 °F93 %30.16 in1.0 miCalmClear
12:54 AM37.9 °F36.0 °F93 %30.17 in0.8 miWest (280°)3.5 mphClear
12:57 AM37.4 °F35.6 °F93 %30.16 in1.5 miWest (280°)3.5 mphClear
1:07 AM37.4 °F35.6 °F93 %30.16 in0.8 miWNW (300°)3.5 mphClear
1:18 AM35.6 °F33.8 °F93 %30.16 in1.5 miNW (310°)3.5 mphClear
1:37 AM35.6 °F33.8 °F93 %30.15 in2.5 miNW (310°)4.6 mphClear
1:45 AM35.6 °F33.8 °F93 %30.15 in3.0 miWNW (300°)4.6 mphClear
1:54 AM36.0 °F34.0 °F93 %30.16 in3.0 miWNW (290°)5.8 mphClear
2:54 AM35.1 °F32.0 °F89 %30.16 in8.0 miCalmClear
3:54 AM33.1 °F30.0 °F89 %30.16 in10.0 miNW (310°)5.8 mphClear
4:54 AM37.0 °F33.1 °F86 %30.17 in10.0 miNorth (350°)6.9 mphClear
5:54 AM37.0 °F33.1 °F86 %30.16 in10.0 miNNW (340°)8.1 mphClear
6:54 AM36.0 °F33.1 °F89 %30.17 in10.0 miNNW (330°)6.9 mphClear
7:54 AM37.0 °F33.1 °F86 %30.19 in10.0 miNNW (340°)5.8 mphClear
8:54 AM42.1 °F36.0 °F79 %30.19 in10.0 miNNW (340°)6.9 mphClear
9:54 AM48.0 °F37.9 °F68 %30.19 in10.0 miNorth (360°)10.4 mphClear
10:54 AM53.1 °F35.1 °F50 %30.18 in10.0 miNorth (350°)9.2 mphClear
11:54 AM55.0 °F34.0 °F45 %30.15 in10.0 miVariable3.5 mphClear
12:54 PM57.9 °F33.1 °F39 %30.12 in10.0 miCalmClear
1:54 PM59.0 °F30.9 °F35 %30.09 in10.0 miCalmClear
2:54 PM57.9 °F30.9 °F36 %30.08 in10.0 miSSW (200°)5.8 mphClear
3:54 PM59.0 °F30.0 °F33 %30.07 in10.0 miSouth (190°)5.8 mphClear
4:54 PM57.0 °F35.1 °F44 %30.07 in10.0 miSouth (170°)6.9 mphClear
5:54 PM51.1 °F37.0 °F59 %30.07 in10.0 miSouth (170°)6.9 mphClear
6:54 PM51.1 °F36.0 °F56 %30.07 in10.0 miSSE (160°)8.1 mphClear
7:54 PM46.9 °F39.0 °F74 %30.08 in10.0 miSouth (180°)6.9 mphClear
8:54 PM46.9 °F37.9 °F71 %30.09 in10.0 miSSW (200°)3.5 mphClear
9:54 PM46.0 °F39.0 °F76 %30.09 in10.0 miCalmClear
10:54 PM46.0 °F39.0 °F76 %30.09 in10.0 miSSW (210°)5.8 mphPartly Cloudy
11:54 PM48.9 °F39.0 °F69 %30.09 in10.0 miSouth (180°)10.4 mphMostly Cloudy
Hourly data recorded from KRBL, located miles away from Red Bluff, California







STORIES FROM OUR PARTNERS